Regional Weather Roundup
Issued by NWS

Home | Current Version | Previous Version | Graphics & Text | Print | Product List | Glossary On
Versions: 1 2 3 4 5 6 7 8 9 10 11 12 13 14 15 16 17 18 19 20 21 22 23 24 25 26 27 28 29 30 31 32 33 34 35 36 37 38 39 40 41 42 43 44 45 46 47 48 49 50
000
ASUS43 KLSX 191659
RWRMO

WEATHER SUMMARY FOR MISSOURI
NATIONAL WEATHER SERVICE SPRINGFIELD MO
1100 AM CST FRI DEC 19 2014

NOTE: "FAIR" INDICATES FEW OR NO CLOUDS BELOW 12,000 FEET WITH NO
       SIGNIFICANT WEATHER AND/OR OBSTRUCTIONS TO VISIBILITY.
       CURRENT SKY AND/OR WEATHER CONDITIONS ARE NOT AVAILABLE FOR
       CHILLICOTHE AND FARMINGTON.

MOZ001>031-035>038-043-044-053-054-191800-
...NORTHERN AND WESTERN MISSOURI...

CITY           SKY/WX    TMP DP  RH WIND       PRES   REMARKS
KANSAS CTY INT CLOUDY    31  29  92 S5        30.28S WCI  26
KANSAS C DTWN  CLOUDY    32  29  88 SE3       30.30R
LEE`S SUMMIT   CLOUDY    32  29  88 SW7       30.29R WCI  26
ST JOSEPH      CLOUDY    30  28  92 S8        30.30S WCI  22
CHILLICOTHE      N/A     32  29  88 CALM      30.30S
KIRKSVILLE     CLOUDY    30  28  92 SE6       30.29F FOG     WCI  24

$$
MOZ066>068-077>081-088>096-101>105-191800-
...SOUTHWEST MISSOURI...

CITY           SKY/WX    TMP DP  RH WIND       PRES   REMARKS
SPRINGFIELD    CLOUDY    38  35  89 SE6       30.24F
JOPLIN         FOG       37  36  96 NE3       30.27R VSB 1/2

$$
MOZ032>034-039>042-045>050-055>058-069>072-191800-
...CENTRAL MISSOURI...

CITY           SKY/WX    TMP DP  RH WIND       PRES   REMARKS
COLUMBIA       CLOUDY    36  31  82 SE6       30.29S
JEFFERSON CITY CLOUDY    36  31  82 E5        30.31R HAZE
ROLLA          CLOUDY    34  31  88 MISG      30.24F
SEDALIA        CLOUDY    35  33  92 E5        30.28S FOG
WHITEMAN AFB   CLOUDY    35  34  97 S3        30.28S
WARRENSBURG    CLOUDY    32  32 100 CALM      30.29S FOG
OSAGE BEACH    CLOUDY    36  32  87 E5        30.28S

$$
MOZ051-052-059>065-191800-
...EAST CENTRAL MISSOURI...

CITY           SKY/WX    TMP DP  RH WIND       PRES   REMARKS
ST LOUIS INTL  CLOUDY    36  27  69 SE5       30.32F HAZE
SPIRIT OF STL  CLOUDY    35  29  78 E5        30.31F
ST CHARLES     CLOUDY    34  29  82 E5        30.32F WCI  30

$$
MOZ072>076-082>087-097>100-106>115-191800-
...SOUTH CENTRAL AND SOUTHEAST MISSOURI...

CITY           SKY/WX    TMP DP  RH WIND       PRES   REMARKS
CAPE GIRARDEAU CLOUDY    36  28  73 N6        30.32S
FARMINGTON     CLOUDY    34  28  80 N3        30.29F
POPLAR BLUFF   CLOUDY    37  30  75 NE7       30.29F
WEST PLAINS    CLOUDY    34  32  92 E3        30.27F

$$


USA.gov is the U.S. government's official web portal to all federal, state and local government web resources and services.